Home > Weather > Pontiac > Past weeks

Flag for USA Past Weather in Pontiac, Michigan, USA — Yesterday and Last 2 Weeks

Now
81 °F

Sunny.


Feels Like: 80 °F
Forecast: 56 / 82 °F
Wind: 6 mph from Northeast

Location: Oakland County International Airport

Current Time: Jun 24, 2016 at 7:59:26 PM

Latest Report: Jun 24, 2016 at 6:53 PM


Visibility: 10 mi

Pressure: 30.06 "Hg

Humidity: 30%

Dew Point: 47 °F

Location of PontiacLocation

Past Weather in Pontiac — Graph

°F

Pontiac Temperature Yesterday

Maximum temperature yesterday: 76 °F (at 12:53 PM)
Minimum temperature yesterday: 58 °F (at 11:53 PM)
Average temperature yesterday: 68 °F

High & Low Weather Summary for the Past Weeks

 TemperatureHumidityPressure
High90 °F (Jun 11, 3:53 PM)97% (Jun 16, 6:53 AM)30.27 "Hg (Jun 16, 6:53 AM)
Low50 °F (Jun 13, 2:53 AM)24% (Jun 12, 4:53 PM)29.65 "Hg (Jun 16, 5:53 AM)
Average71 °F56%29.97 "Hg
* Reported Jun 9 5:53 PM — Jun 24 5:53 PM, Pontiac, Weather by CustomWeather, © 2016

Note: Actual official high and low records may vary slightly from our data, if they occured in-between our weather recording intervals... More about our weather records

Advertising

Pontiac Weather History for the Previous 24 Hours

Scroll right to see more
 ConditionsComfort  
Time TempWeatherWind HumidityBarometerVisibility
5:53 PM
Fri, Jun 24
82 °FPassing clouds.6 mph29%30.07 "Hg10 mi
4:53 PM82 °FPassing clouds.3 mph29%30.06 "Hg10 mi
3:53 PM80 °FPassing clouds.3 mph30%30.08 "Hg10 mi
2:53 PM80 °FPassing clouds.6 mph30%30.09 "Hg10 mi
1:53 PM79 °FPassing clouds.6 mph31%30.09 "Hg10 mi
12:53 PM78 °FPassing clouds.No wind31%30.09 "Hg10 mi
11:53 AM78 °FSunny.N/A31%30.09 "Hg10 mi
10:53 AM75 °FSunny.9 mph36%30.09 "Hg10 mi
9:53 AM71 °FSunny.8 mph38%30.09 "Hg10 mi
8:53 AM68 °FSunny.7 mph45%30.08 "Hg10 mi
7:53 AM63 °FSunny.7 mph56%30.05 "Hg10 mi
6:53 AM55 °FPassing clouds.No wind69%30.03 "Hg10 mi
5:53 AM54 °FPassing clouds.No wind67%30.03 "Hg10 mi
4:53 AM55 °FClear.No wind64%30.01 "Hg10 mi
3:53 AM53 °FClear.No wind72%30.01 "Hg10 mi
2:53 AM58 °FClear.No wind56%30.01 "Hg10 mi
1:53 AM58 °FClear.3 mph65%29.99 "Hg10 mi
12:53 AM61 °FClear.3 mph56%29.98 "Hg10 mi
11:53 PM
Thu, Jun 23
58 °FPassing clouds.5 mph70%29.99 "Hg10 mi
10:53 PM64 °FPassing clouds.5 mph52%30.00 "Hg10 mi
9:53 PM67 °FPassing clouds.5 mph49%29.97 "Hg10 mi
8:53 PM71 °FSunny.7 mph42%29.94 "Hg10 mi
7:53 PM74 °FSunny.9 mph43%29.91 "Hg10 mi
Weather by CustomWeather, © 2016

See weather overviewHow to use our weather pages